WX4FLY-3 Weather Reports


Display with metric or nautical units.
time (UTC)temp
F
wind
direction
speed
MPH
gust
MPH
rain 1hr
in
rain 24hr
in
rain mn
in
humidity
%
barometer
mb
20240620022840 78 6 14.0 17.0 0.00 0.00 0.00 73 1027.1
20240620021839 78 10 14.0 17.0 0.00 0.00 0.00 73 1027.1
20240620020839 78 21 14.0 18.0 0.00 0.00 0.00 74 1027.1
20240620015838 78 4 14.0 17.0 0.00 0.00 0.00 73 1026.9
20240620014838 78 11 14.0 17.0 0.00 0.00 0.00 76 1026.9
20240620013837 78 355 13.0 17.0 0.00 0.00 0.00 74 1026.9
20240620012837 78 354 14.0 17.0 0.00 0.00 0.00 76 1026.8
20240620011836 78 10 13.0 17.0 0.00 0.00 0.00 79 1026.7
20240620010835 78 22 13.0 17.0 0.00 0.00 0.00 77 1026.5
20240620005835 78 27 13.0 17.0 0.00 0.00 0.00 74 1026.4
20240620004834 78 23 14.0 16.0 0.00 0.00 0.00 73 1026.4
20240620003834 78 23 14.0 16.0 0.00 0.00 0.00 76 1026.4
20240620002833 78 13 14.0 18.0 0.00 0.00 0.00 73 1026.5
20240620001833 78 20 14.0 17.0 0.00 0.00 0.00 75 1026.4
20240620000832 78 356 13.0 16.0 0.00 0.00 0.00 76 1026.3
20240619235832 78 18 13.0 17.0 0.00 0.00 0.00 76 1026.3
20240619234831 78 359 14.0 18.0 0.00 0.00 0.00 75 1026.4
20240619233830 79 29 13.0 15.0 0.00 0.00 0.00 76 1026.6
20240619232830 79 11 14.0 17.0 0.00 0.00 0.00 74 1026.6
20240619231829 79 18 15.0 18.0 0.00 0.00 0.00 75 1026.6
20240619230829 79 18 14.0 18.0 0.00 0.00 0.00 75 1026.7
20240619225828 79 4 13.0 16.0 0.00 0.00 0.00 75 1026.7
20240619224827 79 13 13.0 17.0 0.00 0.00 0.00 76 1026.7
20240619223827 79 14 14.0 17.0 0.00 0.00 0.00 73 1026.6
20240619222826 80 1 11.0 16.0 0.00 0.00 0.00 74 1026.5
20240619221826 80 346 9.0 13.0 0.00 0.00 0.00 72 1026.5
20240619220825 79 0 11.0 13.0 0.00 0.00 0.00 74 1026.6
20240619215825 80 2 10.0 12.0 0.00 0.00 0.00 75 1026.6
20240619214824 81 351 11.0 15.0 0.00 0.00 0.00 72 1026.5
20240619213823 80 337 11.0 15.0 0.00 0.00 0.00 73 1026.6
20240619212823 81 327 11.0 14.0 0.00 0.00 0.00 71 1026.7
20240619211822 81 340 11.0 13.0 0.00 0.00 0.00 72 1026.6
20240619210822 81 337 12.0 14.0 0.00 0.00 0.00 70 1026.7
20240619205821 81 334 11.0 15.0 0.00 0.00 0.00 70 1026.7
20240619204821 81 326 11.0 15.0 0.00 0.00 0.00 71 1026.9
20240619203820 81 330 11.0 14.0 0.00 0.00 0.00 69 1027.1
20240619202819 81 330 11.0 14.0 0.00 0.00 0.00 69 1027.2
20240619201819 81 352 11.0 14.0 0.00 0.00 0.00 69 1027.2
20240619200818 81 324 11.0 14.0 0.00 0.00 0.00 68 1027.2
20240619195818 81 341 11.0 14.0 0.00 0.00 0.00 70 1027.2
20240619194817 82 328 11.0 12.0 0.00 0.00 0.00 68 1027.2
20240619193817 82 347 10.0 13.0 0.00 0.00 0.00 70 1027.2
20240619192816 81 352 11.0 15.0 0.00 0.00 0.00 67 1027.2
20240619191815 82 351 12.0 14.0 0.00 0.00 0.00 67 1027.3
20240619190815 82 340 12.0 14.0 0.00 0.00 0.00 68 1027.3
20240619185814 81 335 12.0 15.0 0.00 0.00 0.00 70 1027.1
20240619184814 81 335 12.0 16.0 0.00 0.00 0.00 70 1027.2
20240619183813 81 335 12.0 15.0 0.00 0.00 0.00 68 1027.2
20240619182813 81 323 12.0 15.0 0.00 0.00 0.00 66 1027.2
20240619181812 82 333 11.0 14.0 0.00 0.00 0.00 67 1027.2
20240619180811 82 336 10.0 14.0 0.00 0.00 0.00 65 1027.4
20240619175811 82 335 11.0 13.0 0.00 0.00 0.00 67 1027.4
20240619174811 82 350 11.0 14.0 0.00 0.00 0.00 66 1027.4
20240619173810 81 348 11.0 13.0 0.00 0.00 0.00 65 1027.4
20240619172809 81 359 11.0 13.0 0.00 0.00 0.00 67 1027.4
20240619171809 81 351 12.0 16.0 0.00 0.00 0.00 67 1027.4
20240619170808 82 335 11.0 14.0 0.00 0.00 0.00 68 1027.5
20240619165807 81 354 12.0 15.0 0.00 0.00 0.00 70 1027.6
20240619164807 81 330 12.0 14.0 0.00 0.00 0.00 69 1027.6
20240619163806 81 344 12.0 15.0 0.00 0.00 0.00 71 1027.6
20240619162806 81 337 12.0 16.0 0.00 0.00 0.00 71 1027.6
20240619161805 81 349 13.0 16.0 0.00 0.00 0.00 66 1027.5
20240619160804 81 352 13.0 17.0 0.00 0.00 0.00 69 1027.5
20240619155804 81 349 13.0 16.0 0.00 0.00 0.00 69 1027.5
20240619154803 80 354 11.0 14.0 0.00 0.00 0.00 70 1027.4
20240619153803 80 330 12.0 15.0 0.00 0.00 0.00 71 1027.3
20240619152802 80 327 13.0 15.0 0.00 0.00 0.00 70 1027.2
20240619151802 81 342 13.0 17.0 0.00 0.00 0.00 70 1027.1
20240619150801 80 350 13.0 16.0 0.00 0.00 0.00 70 1027.1
20240619145801 80 354 14.0 17.0 0.00 0.00 0.00 69 1027.1
20240619144800 80 340 14.0 17.0 0.00 0.00 0.00 70 1027.0
20240619143759 80 341 14.0 17.0 0.00 0.00 0.00 70 1027.2
20240619142759 80 333 13.0 18.0 0.00 0.00 0.00 69 1027.1
20240619141758 80 331 13.0 17.0 0.00 0.00 0.00 70 1027.1
20240619140758 80 353 14.0 17.0 0.00 0.00 0.00 68 1027.1
20240619135757 80 354 12.0 16.0 0.00 0.00 0.00 68 1027.0
20240619134757 80 347 12.0 15.0 0.00 0.00 0.00 68 1026.9
20240619133756 80 351 13.0 15.0 0.00 0.00 0.00 68 1026.8
20240619132755 80 348 13.0 17.0 0.00 0.00 0.00 67 1026.8
20240619131755 80 345 13.0 17.0 0.00 0.00 0.00 72 1026.9
20240619130754 79 348 8.0 16.0 0.00 0.00 0.00 72 1026.6
20240619125754 79 342 7.0 9.0 0.00 0.00 0.00 71 1026.6
20240619124753 78 356 9.0 11.0 0.00 0.00 0.00 73 1026.6
20240619123753 78 10 10.0 13.0 0.00 0.00 0.00 74 1026.5
20240619122752 78 1 9.0 11.0 0.00 0.00 0.00 72 1026.4
20240619121751 79 8 9.0 13.0 0.00 0.00 0.00 71 1026.3
20240619120751 79 4 9.0 13.0 0.00 0.00 0.00 71 1026.3
20240619115750 79 1 11.0 13.0 0.00 0.00 0.00 68 1026.3
20240619114750 79 357 12.0 15.0 0.00 0.00 0.00 69 1026.2
20240619113749 79 6 12.0 15.0 0.00 0.00 0.00 69 1026.1
20240619112749 78 345 13.0 15.0 0.00 0.00 0.00 69 1025.9
20240619111748 78 359 12.0 17.0 0.00 0.00 0.00 71 1025.8
20240619110747 78 344 12.0 16.0 0.00 0.00 0.00 69 1025.7
20240619105747 78 343 12.0 15.0 0.00 0.00 0.00 73 1025.5
20240619104746 78 1 12.0 15.0 0.00 0.00 0.00 73 1025.5
20240619103746 78 354 12.0 15.0 0.00 0.00 0.00 71 1025.4
20240619102745 77 1 11.0 14.0 0.00 0.00 0.00 72 1025.2
20240619101744 77 344 12.0 16.0 0.00 0.00 0.00 71 1025.1
20240619100744 77 6 12.0 15.0 0.00 0.00 0.00 72 1025.2
20240619095743 77 357 12.0 15.0 0.00 0.00 0.00 73 1025.2
20240619094743 77 355 11.0 15.0 0.00 0.00 0.00 75 1025.0
20240619093742 77 359 12.0 15.0 0.00 0.00 0.00 75 1025.1
20240619092742 77 354 12.0 14.0 0.00 0.00 0.00 77 1024.9
20240619091741 77 6 11.0 15.0 0.00 0.00 0.00 75 1024.8
20240619090741 77 8 10.0 13.0 0.00 0.00 0.00 77 1024.8
20240619085740 77 22 11.0 14.0 0.00 0.00 0.00 77 1024.7
20240619084739 77 9 9.0 9.0 0.00 0.00 0.00 78 1024.7
20240619083739 77 7 11.0 13.0 0.00 0.00 0.00 75 1024.7
20240619082738 77 27 11.0 14.0 0.00 0.00 0.00 75 1024.6
20240619081738 77 23 11.0 14.0 0.00 0.00 0.00 74 1024.5
20240619080737 77 32 11.0 12.0 0.00 0.00 0.00 72 1024.4
20240619075736 77 11 12.0 15.0 0.00 0.00 0.00 71 1024.2
20240619074736 77 20 11.0 14.0 0.00 0.00 0.00 69 1024.1
20240619073735 77 25 12.0 15.0 0.00 0.00 0.00 70 1024.1
20240619072735 77 32 12.0 15.0 0.00 0.00 0.00 69 1023.9
20240619071734 77 34 12.0 16.0 0.00 0.00 0.00 68 1023.9
20240619070734 77 35 11.0 14.0 0.00 0.00 0.00 69 1024.1
20240619065733 77 28 13.0 15.0 0.00 0.00 0.00 70 1024.1
20240619064733 77 30 13.0 16.0 0.00 0.00 0.00 69 1024.1
20240619063732 77 29 14.0 15.0 0.00 0.00 0.00 72 1024.2
20240619062731 77 19 13.0 16.0 0.00 0.00 0.00 72 1024.3
20240619061731 77 18 13.0 16.0 0.00 0.00 0.00 74 1024.3
20240619060730 77 23 13.0 17.0 0.00 0.00 0.00 72 1024.3
20240619055730 77 25 14.0 16.0 0.00 0.00 0.00 74 1024.4
20240619054729 77 21 14.0 17.0 0.00 0.00 0.00 74 1024.5
20240619053729 77 38 15.0 18.0 0.00 0.00 0.00 76 1024.4
20240619052728 77 28 15.0 19.0 0.00 0.00 0.00 72 1024.3
20240619051727 77 24 15.0 18.0 0.00 0.00 0.00 76 1024.4
20240619050727 77 15 15.0 19.0 0.00 0.00 0.00 76 1024.5
20240619045726 77 16 16.0 19.0 0.00 0.00 0.00 73 1024.5
20240619044726 77 41 15.0 18.0 0.00 0.00 0.00 75 1024.7
20240619043725 77 13 14.0 18.0 0.00 0.00 0.00 73 1024.7
20240619042724 77 25 15.0 18.0 0.00 0.00 0.00 75 1024.8
20240619041724 77 30 11.0 14.0 0.00 0.00 0.00 78 1024.9
20240619040723 77 31 10.0 12.0 0.00 0.00 0.00 80 1025.0
20240619035723 76 356 11.0 14.0 0.00 0.00 0.00 78 1025.1
20240619034722 77 339 9.0 14.0 0.00 0.00 0.00 78 1025.2
20240619033722 77 319 8.0 13.0 0.00 0.00 0.00 73 1025.1
20240619032721 77 330 8.0 10.0 0.00 0.00 0.00 72 1024.9
20240619031720 77 342 8.0 9.0 0.00 0.00 0.00 72 1025.0
20240619030720 77 347 8.0 11.0 0.00 0.00 0.00 71 1025.0
20240619025719 77 341 8.0 10.0 0.00 0.00 0.00 72 1025.0
20240619024719 77 354 9.0 12.0 0.00 0.00 0.00 70 1025.1
20240619023718 78 359 9.0 12.0 0.00 0.00 0.00 71 1025.1